LPPDLPPR

Guest
Details From LPPD - Ponta Delgada
To LPPR - Porto
Flight Number -
Tags Generated
Created
Modified
Stats Distance 816 nm / 1,511 km
Max Altitude 0 ft / 0 m
Waypoints 3
Social Downloads 1
Likes 0
Share VATSIM

Download

Looking for another format? Having issues loading an existing format? Contact us
Advertisement - Login to hide

Notes

Generated

Route

LPPD PRT LPPR

ID Type Via Altitude Latitude Longitude Leg Dist Tot Dist Heading (true) Name
O LPPD APT - 0 ft / 0 m 37.74624˚ -25.71090˚ - 0 nm - -
PRT VOR - 0 ft / 0 m 41.27300˚ -8.68783˚ 815 nm 815 nm 70° / 81° PORTO VOR-DME
O LPPR APT - 0 ft / 0 m 41.26333˚ -8.68524˚ 0 nm 815 nm 169° / 169° -

Altitude Profile

Advertisement - Login to hide

Weather


0- 5 10 15 20 25 30 35+ Temperature / ° C

Clouds and Precipitation
Forecast for 2018-05-20 12:00 UTC. Updated an hour ago

Ground ~20,000 ft ~40,000 ft Winds

LPPD

Details ICAO LPPD (PDL)
Name PONTA DELGADA
Region Portugal
Timezone Atlantic/Azores (UTC+0.0)
Stats Elevation 259 ft / 79 m (AMSL)
Location 37.742078° -25.697736°
Runways 1
Magnetic Variation 8.301° W

METAR

LPPD 201000Z 28008KT 9000 SCT003 BKN012 19/18 Q1021

Decode

TAF

TAF LPPD 200500Z 2006/2106 27010KT 9999 FEW004 SCT012 TEMPO 2006/2017 SCT004 BKN012 PROB40 TEMPO 2006/2009 2000 DZ BR BKN002 TEMPO 2017/2020 3000 -RADZ BR SCT004 BKN008 BECMG 2020/2023 36013KT SCT015 SCT030 PROB30 TEMPO 2023/2106 36015G25KT

Decode

Departure Runways

ID Width Length Bearing (true) Bearing (mag) Surface Threshold Offset Overrun Length
12 148 ft / 45 m 8,179 ft / 2,493 m 111.77° 120.07° Asphalt 0 ft / 0 m 375 ft / 114 m
30 148 ft / 45 m 8,179 ft / 2,493 m 291.79° 300.09° Asphalt 787 ft / 240 m 0 ft / 0 m

LPPR

Details ICAO LPPR (OPO)
Name Porto
Region Portugal
Timezone Europe/Lisbon (UTC+1.0)
Stats Elevation 228 ft / 69 m (AMSL)
Location 41.247932° -8.681221°
Runways 1
Magnetic Variation 2.284° W

METAR

LPPR 201000Z 23007KT 190V270 CAVOK 18/15 Q1014

Decode

TAF

TAF LPPR 200500Z 2006/2106 18005KT 5000 BR BKN005 TEMPO 2006/2008 1500 BR BKN001 BECMG 2008/2010 22008KT 8000 NSW SCT010 BECMG 2010/2012 9999 SCT015 FEW030TCU PROB30 TEMPO 2012/2018 5000 TSRA SCT030CB BECMG 2013/2015 26007KT BECMG 2018/2020 VRB03KT CAVOK BECMG 2101/2103 18005KT 3000 BR SCT002 BKN004 PROB30 2103/2106 1200 PRFG BKN002

Decode

Destination Runways

ID Width Length Bearing (true) Bearing (mag) Surface Threshold Offset Overrun Length
17 148 ft / 45 m 11,451 ft / 3,490 m 168.88° 171.16° Asphalt 984 ft / 300 m 220 ft / 67 m
35 148 ft / 45 m 11,451 ft / 3,490 m 348.89° 351.17° Asphalt 492 ft / 150 m 370 ft / 113 m

Approach Navaids

Runway Type Ident Frequency Range Bearing (true) Bearing (mag) Slope Elevation
17 Localiser PR 109.90 MHz 18 nm / 33 km 168.87° 171.15° - 228 ft / 69 m (AMSL)
17 Glidescope PR 109.90 MHz 10 nm / 19 km 168.88° 171.17° 2.72° 228 ft / 69 m (AMSL)
17 DME PR 109.90 MHz 18 nm / 33 km - - - 228 ft / 69 m (AMSL)

Popular Alternatives